DEIFP EDHS-EDHL

Flight info

Callsign DEIFP
Flight time N/A
Altitude 3500
Route EDHS DCT EDDH DCT EDHL
Aircraft C152/L-V/N

Departure

Time 2026-04-26 15:41
Airport Stade Airfield (EDHS)

Arrival

Time N/A
Airport Lübeck Blankensee Airport (EDHL)
Time Latitude Longitude Altitude Speed Heading
2026-04-26 15:26 53.56015 9.50046 77 ft 0 kts 199°
2026-04-26 15:33 53.56013 9.50041 80 ft 2 kts 253°
2026-04-26 15:34 53.56019 9.50065 66 ft 9 kts 98°
2026-04-26 15:34 53.56017 9.50083 65 ft 2 kts 102°
2026-04-26 15:34 53.55997 9.50162 72 ft 10 kts 109°
2026-04-26 15:34 53.55972 9.50301 75 ft 13 kts 105°
2026-04-26 15:35 53.55961 9.50388 77 ft 7 kts 35°
2026-04-26 15:35 53.55979 9.50400 76 ft 0 kts 17°
2026-04-26 15:35 53.55979 9.50401 76 ft 0 kts 17°
2026-04-26 15:39 53.55988 9.50405 67 ft 1 kts 14°
2026-04-26 15:39 53.56007 9.50403 77 ft 3 kts 296°
2026-04-26 15:39 53.56008 9.50401 77 ft 0 kts 293°
2026-04-26 15:39 53.56011 9.50385 71 ft 14 kts 288°
2026-04-26 15:40 53.56191 9.49586 207 ft 58 kts 294°
2026-04-26 15:40 53.56373 9.48924 412 ft 61 kts 298°
2026-04-26 15:40 53.56564 9.48237 496 ft 71 kts 298°
2026-04-26 15:40 53.56759 9.47626 577 ft 79 kts 298°
2026-04-26 15:41 53.57040 9.46857 776 ft 71 kts 307°
2026-04-26 15:41 53.57339 9.46131 839 ft 84 kts 303°
2026-04-26 15:41 53.57604 9.45325 1053 ft 78 kts 297°
2026-04-26 15:41 53.57767 9.44470 1264 ft 79 kts 279°
2026-04-26 15:42 53.57781 9.44264 1269 ft 83 kts 278°
2026-04-26 15:43 53.57860 9.43233 1517 ft 84 kts 277°
2026-04-26 15:43 53.57855 9.42285 1704 ft 83 kts 270°
2026-04-26 15:43 53.58342 9.40551 2029 ft 90 kts 310°
2026-04-26 15:44 53.58785 9.39735 1947 ft 98 kts 316°
2026-04-26 15:44 53.59761 9.38287 1933 ft 92 kts 318°
2026-04-26 15:44 53.60235 9.37683 1904 ft 83 kts 324°
2026-04-26 15:45 53.61190 9.36687 1958 ft 79 kts 327°
2026-04-26 15:45 53.61678 9.36274 1961 ft 80 kts 340°
2026-04-26 15:46 53.62809 9.36311 2146 ft 86 kts 13°
2026-04-26 15:46 53.63396 9.36633 2153 ft 91 kts 15°
2026-04-26 15:46 53.64004 9.37097 2139 ft 99 kts 27°
2026-04-26 15:46 53.64385 9.37516 2085 ft 96 kts 31°
2026-04-26 15:47 53.65094 9.38371 2039 ft 94 kts 32°
2026-04-26 15:47 53.66009 9.40028 1867 ft 97 kts 53°
2026-04-26 15:47 53.66303 9.41023 1839 ft 98 kts 72°
2026-04-26 15:48 53.66402 9.42161 1834 ft 96 kts 92°
2026-04-26 15:48 53.66210 9.43216 1867 ft 91 kts 120°
2026-04-26 15:48 53.65865 9.44036 2093 ft 89 kts 131°
2026-04-26 15:48 53.65783 9.44993 2131 ft 88 kts 73°
2026-04-26 15:49 53.65912 9.46059 2167 ft 91 kts 84°
2026-04-26 15:49 53.65922 9.47127 2162 ft 92 kts 86°
2026-04-26 15:49 53.66192 9.48067 2108 ft 88 kts 48°
2026-04-26 15:49 53.66601 9.48771 2131 ft 85 kts 38°
2026-04-26 15:50 53.67042 9.49490 2132 ft 89 kts 46°
2026-04-26 15:50 53.67429 9.50325 2143 ft 90 kts 49°
2026-04-26 15:50 53.67802 9.51189 2122 ft 91 kts 58°
2026-04-26 15:50 53.67909 9.52282 2071 ft 100 kts 99°
2026-04-26 15:51 53.67626 9.53295 2106 ft 94 kts 124°
2026-04-26 15:51 53.67213 9.54208 1999 ft 103 kts 128°
2026-04-26 15:51 53.66744 9.55109 1998 ft 102 kts 137°
2026-04-26 15:51 53.66222 9.55836 2091 ft 94 kts 141°
2026-04-26 15:52 53.65708 9.56546 2111 ft 96 kts 144°
2026-04-26 15:52 53.65163 9.57182 2131 ft 95 kts 150°
2026-04-26 15:52 53.64572 9.57682 2248 ft 97 kts 159°
2026-04-26 15:52 53.64162 9.58015 2252 ft 101 kts 154°
2026-04-26 15:53 53.63324 9.58837 2249 ft 104 kts 155°
2026-04-26 15:53 53.62676 9.59368 2195 ft 99 kts 157°
2026-04-26 15:53 53.62077 9.59857 2169 ft 98 kts 154°
2026-04-26 15:53 53.61453 9.60425 2054 ft 102 kts 154°
2026-04-26 15:54 53.60827 9.60945 2035 ft 97 kts 159°
2026-04-26 15:54 53.60207 9.61419 2142 ft 95 kts 159°
2026-04-26 15:54 53.59683 9.62086 2131 ft 94 kts 128°
2026-04-26 15:54 53.59372 9.63058 2062 ft 99 kts 118°
2026-04-26 15:55 53.58998 9.64016 2086 ft 97 kts 126°
2026-04-26 15:55 53.58537 9.64900 2052 ft 101 kts 137°
2026-04-26 15:55 53.58012 9.65674 1996 ft 102 kts 140°
2026-04-26 15:55 53.57532 9.66581 1888 ft 104 kts 125°
2026-04-26 15:56 53.57181 9.67575 1938 ft 94 kts 112°
2026-04-26 15:56 53.56969 9.68627 1983 ft 96 kts 107°
2026-04-26 15:56 53.56763 9.69695 2006 ft 97 kts 108°
2026-04-26 15:56 53.56574 9.70776 1981 ft 96 kts 103°
2026-04-26 15:57 53.56445 9.71866 1999 ft 94 kts 101°
2026-04-26 15:57 53.56332 9.72939 1980 ft 94 kts 100°
2026-04-26 15:57 53.56209 9.74027 1944 ft 95 kts 101°
2026-04-26 15:57 53.56128 9.74743 1940 ft 94 kts 101°
2026-04-26 15:58 53.55941 9.76184 1908 ft 95 kts 103°
2026-04-26 15:58 53.55799 9.77261 1882 ft 94 kts 101°
2026-04-26 15:58 53.55660 9.78344 1850 ft 95 kts 103°
2026-04-26 15:58 53.55505 9.79373 1879 ft 91 kts 104°
2026-04-26 15:59 53.55355 9.80429 1859 ft 93 kts 103°
2026-04-26 15:59 53.55208 9.81487 1841 ft 94 kts 106°
2026-04-26 15:59 53.55034 9.82518 1865 ft 89 kts 105°
2026-04-26 15:59 53.54881 9.83552 1855 ft 92 kts 102°
2026-04-26 16:00 53.54749 9.84609 1874 ft 93 kts 102°
2026-04-26 16:00 53.54614 9.85671 1906 ft 92 kts 102°
2026-04-26 16:00 53.54503 9.86710 1967 ft 89 kts 99°
2026-04-26 16:00 53.54388 9.87751 1990 ft 91 kts 102°
2026-04-26 16:01 53.54301 9.88783 2019 ft 93 kts 93°
2026-04-26 16:01 53.54282 9.89888 2010 ft 95 kts 90°
2026-04-26 16:01 53.54297 9.90976 2047 ft 92 kts 88°
2026-04-26 16:01 53.54264 9.92035 2104 ft 89 kts 97°
2026-04-26 16:02 53.54209 9.93120 2037 ft 99 kts 92°
2026-04-26 16:02 53.54205 9.94264 2026 ft 98 kts 90°
2026-04-26 16:02 53.54210 9.95361 2087 ft 92 kts 89°
2026-04-26 16:02 53.54194 9.96090 2055 ft 97 kts 97°
2026-04-26 16:03 53.53888 9.97483 2141 ft 88 kts 114°
2026-04-26 16:03 53.53694 9.98521 2101 ft 97 kts 99°
2026-04-26 16:03 53.53728 9.99664 2018 ft 102 kts 80°
2026-04-26 16:03 53.53784 10.00819 2027 ft 98 kts 87°
2026-04-26 16:04 53.53826 10.01970 1986 ft 100 kts 83°
2026-04-26 16:04 53.53887 10.03088 2029 ft 98 kts 87°
2026-04-26 16:04 53.53890 10.04193 2144 ft 90 kts 92°
2026-04-26 16:04 53.53859 10.05277 2161 ft 95 kts 91°
2026-04-26 16:05 53.53869 10.06375 2264 ft 93 kts 85°
2026-04-26 16:05 53.53865 10.07465 2256 ft 97 kts 92°
2026-04-26 16:05 53.53898 10.08602 2269 ft 96 kts 83°
2026-04-26 16:05 53.54130 10.09635 2295 ft 96 kts 61°
2026-04-26 16:06 53.54456 10.10657 2286 ft 98 kts 58°
2026-04-26 16:06 53.54795 10.11608 2295 ft 97 kts 58°
2026-04-26 16:06 53.55142 10.12614 2319 ft 98 kts 62°
2026-04-26 16:06 53.55414 10.13651 2207 ft 106 kts 67°
2026-04-26 16:07 53.55666 10.14733 2267 ft 96 kts 69°
2026-04-26 16:07 53.55874 10.15840 2288 ft 100 kts 72°
2026-04-26 16:07 53.56027 10.16979 2365 ft 95 kts 82°
2026-04-26 16:07 53.56089 10.18157 2256 ft 100 kts 89°
2026-04-26 16:08 53.56049 10.19274 2273 ft 100 kts 94°
2026-04-26 16:08 53.55991 10.20051 2266 ft 99 kts 98°
2026-04-26 16:08 53.55760 10.21585 2185 ft 106 kts 108°
2026-04-26 16:08 53.55412 10.22653 2232 ft 100 kts 127°
2026-04-26 16:09 53.55109 10.23679 2225 ft 103 kts 114°
2026-04-26 16:09 53.54769 10.24703 2191 ft 100 kts 127°
2026-04-26 16:09 53.54318 10.25626 2186 ft 102 kts 133°
2026-04-26 16:09 53.53841 10.26477 2322 ft 98 kts 133°
2026-04-26 16:10 53.53371 10.27317 2384 ft 101 kts 137°
2026-04-26 16:10 53.52966 10.28306 2355 ft 108 kts 117°
2026-04-26 16:10 53.52671 10.29393 2379 ft 109 kts 117°
2026-04-26 16:10 53.52338 10.30454 2366 ft 104 kts 121°
2026-04-26 16:11 53.51941 10.31428 2354 ft 100 kts 129°
2026-04-26 16:11 53.51514 10.32373 2295 ft 102 kts 124°
2026-04-26 16:11 53.51097 10.33321 2253 ft 101 kts 133°
2026-04-26 16:11 53.50605 10.34157 2195 ft 100 kts 134°
2026-04-26 16:12 53.50205 10.35121 2135 ft 103 kts 122°
2026-04-26 16:12 53.49913 10.36190 2134 ft 100 kts 105°
2026-04-26 16:12 53.49571 10.38483 2056 ft 102 kts 109°
2026-04-26 16:13 53.49397 10.39613 2056 ft 101 kts 97°
2026-04-26 16:13 53.49282 10.40775 2030 ft 103 kts 103°
2026-04-26 16:13 53.49155 10.41933 2110 ft 98 kts 84°
2026-04-26 16:13 53.49288 10.43090 2071 ft 101 kts 72°
2026-04-26 16:14 53.49491 10.44196 2123 ft 100 kts 72°
2026-04-26 16:14 53.49611 10.45378 2138 ft 100 kts 82°
2026-04-26 16:14 53.49415 10.47689 2097 ft 101 kts 101°
2026-04-26 16:15 53.49319 10.48880 2144 ft 99 kts 90°
2026-04-26 16:15 53.49328 10.50056 2080 ft 105 kts 88°
2026-04-26 16:15 53.49340 10.51246 2127 ft 100 kts 91°
2026-04-26 16:16 53.49250 10.53638 2200 ft 102 kts 86°
2026-04-26 16:16 53.49305 10.54848 2274 ft 102 kts 82°
2026-04-26 16:16 53.49348 10.56029 2293 ft 105 kts 92°
2026-04-26 16:16 53.49323 10.57229 2300 ft 99 kts 84°
2026-04-26 16:17 53.49379 10.58421 2290 ft 103 kts 83°
2026-04-26 16:17 53.49460 10.59637 2290 ft 102 kts 81°
2026-04-26 16:17 53.49468 10.60858 2133 ft 111 kts 96°
2026-04-26 16:17 53.49366 10.62065 2241 ft 96 kts 100°
2026-04-26 16:18 53.49213 10.63223 2122 ft 108 kts 101°
2026-04-26 16:18 53.48426 10.65174 1936 ft 112 kts 155°
2026-04-26 16:19 53.47156 10.66247 1762 ft 99 kts 158°
2026-04-26 16:19 53.46628 10.67006 1595 ft 103 kts 127°
2026-04-26 16:19 53.45864 10.68402 1524 ft 96 kts 142°
2026-04-26 16:20 53.45183 10.69338 1534 ft 97 kts 140°
2026-04-26 16:20 53.44195 10.70836 1473 ft 97 kts 139°
2026-04-26 16:20 53.43727 10.71594 1413 ft 91 kts 131°
2026-04-26 16:21 53.43398 10.72543 1194 ft 98 kts 117°
2026-04-26 16:21 53.43007 10.73469 1105 ft 94 kts 134°
2026-04-26 16:21 53.42574 10.74284 1054 ft 87 kts 138°
2026-04-26 16:21 53.42161 10.75004 1050 ft 91 kts 124°
2026-04-26 16:22 53.41870 10.75926 1107 ft 90 kts 114°
2026-04-26 16:22 53.41644 10.76870 1184 ft 90 kts 108°
2026-04-26 16:22 53.41508 10.77935 1156 ft 96 kts 96°
2026-04-26 16:22 53.41463 10.79088 1030 ft 102 kts 98°
2026-04-26 16:23 53.41294 10.80204 906 ft 98 kts 111°
2026-04-26 16:23 53.41030 10.81159 858 ft 86 kts 127°
2026-04-26 16:23 53.40653 10.81928 742 ft 77 kts 139°
2026-04-26 16:23 53.40233 10.82458 699 ft 73 kts 151°
2026-04-26 16:24 53.39797 10.82925 650 ft 77 kts 149°
2026-04-26 16:24 53.39331 10.82941 603 ft 71 kts 229°
2026-04-26 16:24 53.39040 10.82318 537 ft 66 kts 212°
2026-04-26 16:24 53.38640 10.81990 431 ft 61 kts 217°
2026-04-26 16:25 53.38355 10.81462 248 ft 60 kts 240°
2026-04-26 16:25 53.38208 10.80825 104 ft 58 kts 258°
2026-04-26 16:25 53.38115 10.80248 38 ft 33 kts 256°
2026-04-26 16:25 53.38101 10.80156 40 ft 0 kts 252°